Date,TemperatureHighF,TemperatureAvgF,TemperatureLowF,DewpointHighF,DewpointAvgF,DewpointLowF,HumidityHigh,HumidityAvg,HumidityLow,PressureMaxIn,PressureMinIn,WindSpeedMaxMPH,WindSpeedAvgMPH,GustSpeedMaxMPH,PrecipitationSumIn
2013-8-1,67,58,50,-100,-100,-100,0,0,100,0.00,40.00,0,-999,0,0.02
2013-8-2,59,52,49,-100,-100,-100,0,0,100,0.00,40.00,0,-999,0,0.04
2013-8-3,66,54,46,-100,-100,-100,0,0,100,0.00,40.00,0,-999,0,0.00
2013-8-4,76,62,48,-100,-100,-100,0,0,100,0.00,40.00,0,-999,0,0.00
2013-8-5,77,62,51,-100,-100,-100,0,0,100,0.00,40.00,0,-999,0,0.00
2013-8-6,80,66,53,-100,-100,-100,0,0,100,0.00,40.00,0,-999,0,0.00
2013-8-7,82,66,53,-100,-100,-100,0,0,100,0.00,40.00,0,-999,0,0.00
2013-8-8,80,66,53,-100,-100,-100,0,0,100,0.00,40.00,0,-999,0,0.01
2013-8-9,84,67,59,-100,-100,-100,0,0,100,0.00,40.00,0,-999,0,0.00
2013-8-10,82,69,56,-100,-100,-100,0,0,100,0.00,40.00,0,-999,0,0.01
2013-8-11,78,63,57,-100,-100,-100,0,0,100,0.00,40.00,0,-999,0,0.01
2013-8-12,83,67,54,-100,-100,-100,0,0,100,0.00,40.00,0,-999,0,0.00
2013-8-13,81,68,57,-100,-100,-100,0,0,100,0.00,40.00,0,-999,0,0.00
2013-8-14,85,67,55,-100,-100,-100,0,0,100,0.00,40.00,0,-999,0,1.99
2013-8-15,86,72,59,-100,-100,-100,0,0,100,0.00,40.00,0,-999,0,0.00
2013-8-16,82,69,58,-100,-100,-100,0,0,100,0.00,40.00,0,-999,0,0.00
2013-8-25,78,65,54,-100,-100,-100,0,0,100,0.00,40.00,0,-999,0,0.00
2013-8-26,75,58,49,-100,-100,-100,0,0,100,0.00,40.00,0,-999,0,0.02
2013-8-27,68,58,52,-100,-100,-100,0,0,100,0.00,40.00,0,-999,0,0.00
2013-8-28,73,67,63,-100,-100,-100,0,0,100,0.00,40.00,0,-999,0,0.00
2013-8-29,77,65,58,-100,-100,-100,0,0,100,0.00,40.00,0,-999,0,0.01
2013-8-30,73,61,54,-100,-100,-100,0,0,100,0.00,40.00,0,-999,0,0.01
2013-8-31,82,64,50,-100,-100,-100,0,0,100,0.00,40.00,0,-999,0,0.00